Time,TemperatureF,DewpointF,PressureIn,WindDirection,WindDirectionDegrees,WindSpeedMPH,WindSpeedGustMPH,Humidity,HourlyPrecipIn,Conditions,Clouds,dailyrainin,SoftwareType,DateUTC
2013-01-31 08:03:00,25.0,-99.9,-100.00,NW,317,8.0,-999.0,-999,0.00,,,0.00,,2013-01-31 14:03:00,
2013-01-31 08:12:00,25.0,-99.9,-100.00,NW,317,8.0,-999.0,-999,0.00,,,0.00,,2013-01-31 14:12:00,
2013-01-31 08:22:00,25.0,-99.9,-100.00,NW,317,8.0,-999.0,-999,0.00,,,0.00,,2013-01-31 14:22:00,
2013-01-31 08:32:00,25.0,-99.9,-100.00,NW,319,8.0,-999.0,-999,0.00,,,0.00,,2013-01-31 14:32:00,
2013-01-31 08:42:00,25.0,-99.9,-100.00,NW,319,8.0,-999.0,-999,0.00,,,0.00,,2013-01-31 14:42:00,
2013-01-31 08:52:00,25.0,-99.9,-100.00,NW,319,8.0,-999.0,-999,0.00,,,0.00,,2013-01-31 14:52:00,
2013-01-31 09:03:00,24.0,-99.9,-100.00,NW,324,10.0,-999.0,-999,0.00,,,0.00,,2013-01-31 15:03:00,
2013-01-31 09:12:00,24.0,-99.9,-100.00,NW,324,10.0,-999.0,-999,0.00,,,0.00,,2013-01-31 15:12:00,
2013-01-31 09:23:00,24.0,-99.9,-100.00,NW,324,10.0,-999.0,-999,0.00,,,0.00,,2013-01-31 15:23:00,
2013-01-31 09:30:00,24.0,-99.9,-100.00,NNW,327,8.0,-999.0,-999,0.00,,,0.00,,2013-01-31 15:30:00,
2013-01-31 09:32:00,24.0,-99.9,-100.00,NW,324,10.0,-999.0,-999,0.00,,,0.00,,2013-01-31 15:32:00,
2013-01-31 09:42:00,24.0,-99.9,-100.00,NW,324,10.0,-999.0,-999,0.00,,,0.00,,2013-01-31 15:42:00,
2013-01-31 09:52:00,24.0,-99.9,-100.00,NW,324,10.0,-999.0,-999,0.00,,,0.00,,2013-01-31 15:52:00,
2013-01-31 10:04:00,24.0,-99.9,-100.00,NNW,327,8.0,-999.0,-999,0.00,,,0.00,,2013-01-31 16:04:00,
2013-01-31 10:13:00,24.0,-99.9,-100.00,NNW,327,8.0,-999.0,-999,0.00,,,0.00,,2013-01-31 16:13:00,
2013-01-31 10:22:00,24.0,-99.9,-100.00,NNW,327,8.0,-999.0,-999,0.00,,,0.00,,2013-01-31 16:22:00,
2013-01-31 10:42:00,24.0,-99.9,-100.00,NW,314,13.0,-999.0,-999,0.00,,,0.00,,2013-01-31 16:42:00,
2013-01-31 10:52:00,24.0,-99.9,-100.00,NW,314,13.0,-999.0,-999,0.00,,,0.00,,2013-01-31 16:52:00,
2013-01-31 11:03:00,24.0,-99.9,-100.00,NW,307,10.0,-999.0,-999,0.00,,,0.00,,2013-01-31 17:03:00,
2013-01-31 11:13:00,24.0,-99.9,-100.00,NW,307,10.0,-999.0,-999,0.00,,,0.00,,2013-01-31 17:13:00,
2013-01-31 11:23:00,24.0,-99.9,-100.00,NW,307,10.0,-999.0,-999,0.00,,,0.00,,2013-01-31 17:23:00,
2013-01-31 11:32:00,25.0,-99.9,-100.00,NW,324,9.0,-999.0,-999,0.00,,,0.00,,2013-01-31 17:32:00,
2013-01-31 11:44:00,25.0,-99.9,-100.00,NW,324,9.0,-999.0,-999,0.00,,,0.00,,2013-01-31 17:44:00,
2013-01-31 11:54:00,25.0,-99.9,-100.00,NW,324,9.0,-999.0,-999,0.00,,,0.00,,2013-01-31 17:54:00,
2013-01-31 12:03:00,24.0,-99.9,-100.00,NW,316,12.0,-999.0,-999,0.00,,,0.00,,2013-01-31 18:03:00,
2013-01-31 12:13:00,24.0,-99.9,-100.00,NW,316,12.0,-999.0,-999,0.00,,,0.00,,2013-01-31 18:13:00,
2013-01-31 12:22:00,24.0,-99.9,-100.00,NW,316,12.0,-999.0,-999,0.00,,,0.00,,2013-01-31 18:22:00,
2013-01-31 12:33:00,24.0,-99.9,-100.00,NW,319,13.0,-999.0,-999,0.00,,,0.00,,2013-01-31 18:33:00,
2013-01-31 12:43:00,24.0,-99.9,-100.00,NW,319,13.0,-999.0,-999,0.00,,,0.00,,2013-01-31 18:43:00,
2013-01-31 12:52:00,24.0,-99.9,-100.00,NW,319,13.0,-999.0,-999,0.00,,,0.00,,2013-01-31 18:52:00,
2013-01-31 13:03:00,23.0,-99.9,-100.00,NW,317,13.0,-999.0,-999,0.00,,,0.00,,2013-01-31 19:03:00,
2013-01-31 13:13:00,23.0,-99.9,-100.00,NW,317,13.0,-999.0,-999,0.00,,,0.00,,2013-01-31 19:13:00,
2013-01-31 13:22:00,23.0,-99.9,-100.00,NW,317,13.0,-999.0,-999,0.00,,,0.00,,2013-01-31 19:22:00,
2013-01-31 13:33:00,23.0,-99.9,-100.00,NNW,332,19.0,-999.0,-999,0.00,,,0.00,,2013-01-31 19:33:00,
2013-01-31 13:43:00,23.0,-99.9,-100.00,NNW,332,19.0,-999.0,-999,0.00,,,0.00,,2013-01-31 19:43:00,
2013-01-31 13:53:00,23.0,-99.9,-100.00,NNW,332,19.0,-999.0,-999,0.00,,,0.00,,2013-01-31 19:53:00,
2013-01-31 14:03:00,22.0,-99.9,-100.00,NW,318,16.0,-999.0,-999,0.00,,,0.00,,2013-01-31 20:03:00,
2013-01-31 14:12:00,22.0,-99.9,-100.00,NW,318,16.0,-999.0,-999,0.00,,,0.00,,2013-01-31 20:12:00,
2013-01-31 14:22:00,22.0,-99.9,-100.00,NW,318,16.0,-999.0,-999,0.00,,,0.00,,2013-01-31 20:22:00,
2013-01-31 14:32:00,21.0,-99.9,-100.00,NW,319,16.0,-999.0,-999,0.00,,,0.00,,2013-01-31 20:32:00,
2013-01-31 14:42:00,21.0,-99.9,-100.00,NW,319,16.0,-999.0,-999,0.00,,,0.00,,2013-01-31 20:42:00,
2013-01-31 14:53:00,21.0,-99.9,-100.00,NW,319,16.0,-999.0,-999,0.00,,,0.00,,2013-01-31 20:53:00,
2013-01-31 15:02:00,21.0,-99.9,-100.00,NW,322,25.0,-999.0,-999,0.00,,,0.00,,2013-01-31 21:02:00,
2013-01-31 15:13:00,21.0,-99.9,-100.00,NW,322,25.0,-999.0,-999,0.00,,,0.00,,2013-01-31 21:13:00,
2013-01-31 15:22:00,21.0,-99.9,-100.00,NW,322,25.0,-999.0,-999,0.00,,,0.00,,2013-01-31 21:22:00,
2013-01-31 15:32:00,19.0,-99.9,-100.00,NW,310,15.0,-999.0,-999,0.00,,,0.00,,2013-01-31 21:32:00,
2013-01-31 15:42:00,19.0,-99.9,-100.00,NW,310,15.0,-999.0,-999,0.00,,,0.00,,2013-01-31 21:42:00,
2013-01-31 15:52:00,19.0,-99.9,-100.00,NW,310,15.0,-999.0,-999,0.00,,,0.00,,2013-01-31 21:52:00,
2013-01-31 16:03:00,18.0,-99.9,-100.00,NW,310,16.0,-999.0,-999,0.00,,,0.00,,2013-01-31 22:03:00,
2013-01-31 16:11:00,18.0,-99.9,-100.00,NW,310,16.0,-999.0,-999,0.00,,,0.00,,2013-01-31 22:11:00,
2013-01-31 16:22:00,18.0,-99.9,-100.00,NW,310,16.0,-999.0,-999,0.00,,,0.00,,2013-01-31 22:22:00,
2013-01-31 16:33:00,18.0,-99.9,-100.00,NW,315,15.0,-999.0,-999,0.00,,,0.00,,2013-01-31 22:33:00,
2013-01-31 16:43:00,18.0,-99.9,-100.00,NW,315,15.0,-999.0,-999,0.00,,,0.00,,2013-01-31 22:43:00,
2013-01-31 16:52:00,18.0,-99.9,-100.00,NW,315,15.0,-999.0,-999,0.00,,,0.00,,2013-01-31 22:52:00,
2013-01-31 17:03:00,17.0,-99.9,-100.00,NW,308,11.0,-999.0,-999,0.00,,,0.00,,2013-01-31 23:03:00,
2013-01-31 17:12:00,17.0,-99.9,-100.00,NW,308,11.0,-999.0,-999,0.00,,,0.00,,2013-01-31 23:12:00,
2013-01-31 17:22:00,17.0,-99.9,-100.00,NW,308,11.0,-999.0,-999,0.00,,,0.00,,2013-01-31 23:22:00,
2013-01-31 17:32:00,16.0,-99.9,-100.00,NW,311,11.0,-999.0,-999,0.00,,,0.00,,2013-01-31 23:32:00,
2013-01-31 17:43:00,16.0,-99.9,-100.00,NW,311,11.0,-999.0,-999,0.00,,,0.00,,2013-01-31 23:43:00,
2013-01-31 17:52:00,16.0,-99.9,-100.00,NW,311,11.0,-999.0,-999,0.00,,,0.00,,2013-01-31 23:52:00,
2013-01-31 18:02:00,16.0,-99.9,-100.00,NW,311,11.0,-999.0,-999,0.00,,,0.00,,2013-02-01 00:02:00,
2013-01-31 18:12:00,16.0,-99.9,-100.00,NW,311,11.0,-999.0,-999,0.00,,,0.00,,2013-02-01 00:12:00,
2013-01-31 18:22:00,16.0,-99.9,-100.00,NW,311,11.0,-999.0,-999,0.00,,,0.00,,2013-02-01 00:22:00,
2013-01-31 18:32:00,15.0,-99.9,-100.00,NW,315,13.0,-999.0,-999,0.00,,,0.00,,2013-02-01 00:32:00,
2013-01-31 18:42:00,15.0,-99.9,-100.00,NW,315,13.0,-999.0,-999,0.00,,,0.00,,2013-02-01 00:42:00,
2013-01-31 18:52:00,15.0,-99.9,-100.00,NW,315,13.0,-999.0,-999,0.00,,,0.00,,2013-02-01 00:52:00,
2013-01-31 19:01:00,14.0,-99.9,-100.00,NW,310,13.0,-999.0,-999,0.00,,,0.00,,2013-02-01 01:01:00,
2013-01-31 19:12:00,14.0,-99.9,-100.00,NW,310,13.0,-999.0,-999,0.00,,,0.00,,2013-02-01 01:12:00,
2013-01-31 19:22:00,14.0,-99.9,-100.00,NW,310,13.0,-999.0,-999,0.00,,,0.00,,2013-02-01 01:22:00,
2013-01-31 19:32:00,12.0,-99.9,-100.00,NW,312,12.0,-999.0,-999,0.00,,,0.00,,2013-02-01 01:32:00,
2013-01-31 19:42:00,12.0,-99.9,-100.00,NW,312,12.0,-999.0,-999,0.00,,,0.00,,2013-02-01 01:42:00,
2013-01-31 19:52:00,12.0,-99.9,-100.00,NW,312,12.0,-999.0,-999,0.00,,,0.00,,2013-02-01 01:52:00,
2013-01-31 20:02:00,11.0,-99.9,-100.00,NW,304,15.0,-999.0,-999,0.00,,,0.00,,2013-02-01 02:02:00,
2013-01-31 20:12:00,11.0,-99.9,-100.00,NW,304,15.0,-999.0,-999,0.00,,,0.00,,2013-02-01 02:12:00,
2013-01-31 20:22:00,11.0,-99.9,-100.00,NW,304,15.0,-999.0,-999,0.00,,,0.00,,2013-02-01 02:22:00,
2013-01-31 20:32:00,11.0,-99.9,-100.00,NW,316,14.0,-999.0,-999,0.00,,,0.00,,2013-02-01 02:32:00,
2013-01-31 20:42:00,11.0,-99.9,-100.00,NW,316,14.0,-999.0,-999,0.00,,,0.00,,2013-02-01 02:42:00,
2013-01-31 20:52:00,11.0,-99.9,-100.00,NW,316,14.0,-999.0,-999,0.00,,,0.00,,2013-02-01 02:52:00,
2013-01-31 21:02:00,10.0,-99.9,-100.00,NW,306,13.0,-999.0,-999,0.00,,,0.00,,2013-02-01 03:02:00,
2013-01-31 21:12:00,10.0,-99.9,-100.00,NW,306,13.0,-999.0,-999,0.00,,,0.00,,2013-02-01 03:12:00,
2013-01-31 21:22:00,10.0,-99.9,-100.00,NW,306,13.0,-999.0,-999,0.00,,,0.00,,2013-02-01 03:22:00,
2013-01-31 21:33:00,10.0,-99.9,-100.00,NW,307,12.0,-999.0,-999,0.00,,,0.00,,2013-02-01 03:33:00,
2013-01-31 21:42:00,10.0,-99.9,-100.00,NW,307,12.0,-999.0,-999,0.00,,,0.00,,2013-02-01 03:42:00,
2013-01-31 21:52:00,10.0,-99.9,-100.00,NW,307,12.0,-999.0,-999,0.00,,,0.00,,2013-02-01 03:52:00,
2013-01-31 22:02:00,9.0,-99.9,-100.00,NW,305,10.0,-999.0,-999,0.00,,,0.00,,2013-02-01 04:02:00,
2013-01-31 22:11:00,9.0,-99.9,-100.00,NW,305,10.0,-999.0,-999,0.00,,,0.00,,2013-02-01 04:11:00,
2013-01-31 22:22:00,9.0,-99.9,-100.00,NW,305,10.0,-999.0,-999,0.00,,,0.00,,2013-02-01 04:22:00,
2013-01-31 22:32:00,9.0,-99.9,-100.00,WNW,302,10.0,-999.0,-999,0.00,,,0.00,,2013-02-01 04:32:00,
2013-01-31 22:42:00,9.0,-99.9,-100.00,WNW,302,10.0,-999.0,-999,0.00,,,0.00,,2013-02-01 04:42:00,
2013-01-31 22:52:00,9.0,-99.9,-100.00,WNW,302,10.0,-999.0,-999,0.00,,,0.00,,2013-02-01 04:52:00,
2013-01-31 23:04:00,9.0,-99.9,-100.00,NW,319,8.0,-999.0,-999,0.00,,,0.00,,2013-02-01 05:04:00,
2013-01-31 23:12:00,9.0,-99.9,-100.00,NW,319,8.0,-999.0,-999,0.00,,,0.00,,2013-02-01 05:12:00,
2013-01-31 23:23:00,9.0,-99.9,-100.00,NW,319,8.0,-999.0,-999,0.00,,,0.00,,2013-02-01 05:23:00,
2013-01-31 23:32:00,9.0,-99.9,-100.00,NW,313,10.0,-999.0,-999,0.00,,,0.00,,2013-02-01 05:32:00,
2013-01-31 23:42:00,9.0,-99.9,-100.00,NW,313,10.0,-999.0,-999,0.00,,,0.00,,2013-02-01 05:42:00,
2013-01-31 23:52:00,9.0,-99.9,-100.00,NW,313,10.0,-999.0,-999,0.00,,,0.00,,2013-02-01 05:52:00,